This demonstration page uses our WeatherBlox Daily Observations layout. Learn more.

Left ArrowRight Arrow

Hourly Observations for August 6, 2017

Temp ( °F °C ) Dew Point ( °F °C ) Humidity (%) Winds ( mph kmh ) Pressure ( in mb ) Visibility ( mi km ) Precip ( " mm )
12:34 am 00:34 Cloudy 69 20.6 67 19.4 93 93 ENE 12 19 29.80 1009 10 16 0.00 0.00
12:53 am 00:53 Cloudy 69 20.6 67 19.4 93 93 ENE 8 13 29.82 1010 10 16 0.00 0.00
1:53 am 01:53 Cloudy with Light Rain 70 21.1 67 19.4 90 90 E 9 15 29.81 1010 10 16 0.00 0.03
2:53 am 02:53 Cloudy 69 20.6 68 20 96 96 E 8 13 29.82 1010 10 16 0.02 0.51
3:53 am 03:53 Cloudy 69 20.6 67 19.4 93 93 ESE 12 19 29.80 1009 10 16 0.00 0.00
4:53 am 04:53 Cloudy 69 20.6 67 19.4 93 93 SE 10 17 29.81 1010 10 16 0.00 0.00
5:53 am 05:53 Mostly Cloudy 68 20 66 18.9 93 93 ENE 3 6 29.82 1010 10 16 0.00 0.03
6:01 am 06:01 Mostly Cloudy 68 20 67 19.4 96 96 E 5 7 29.83 1010 10 16 0.00 0.00
6:45 am 06:45 Mostly Cloudy 68 20 67 19.4 96 96 NNE 7 11 29.83 1010 10 16 0.00 0.00
6:53 am 06:53 Cloudy 68 20 67 19.4 96 96 NNE 7 11 29.83 1010 10 16 0.00 0.00
7:53 am 07:53 Mostly Cloudy 69 20.6 67 19.4 93 93 NNW 8 13 29.86 1011 10 16 0.00 0.00
8:53 am 08:53 Cloudy 70 21.1 67 19.4 90 90 N 12 19 29.87 1012 10 16 0.00 0.00
9:53 am 09:53 Cloudy 73 22.8 68 20 84 84 NNE 10 17 29.89 1012 10 16 0.00 0.00
10:53 am 10:53 Cloudy 73 22.8 68 20 84 84 NNE 8 13 29.90 1013 10 16 0.00 0.00
11:53 am 11:53 Cloudy 74 23.3 67 19.4 79 79 NNE 6 9 29.91 1013 10 16 0.00 0.00
12:53 pm 12:53 Cloudy 77 25 67 19.4 71 71 NNE 9 15 29.90 1012 10 16 0.00 0.00
1:53 pm 13:53 Cloudy 79 26.1 67 19.4 67 67 NNE 13 20 29.89 1012 10 16 0.00 0.00
2:53 pm 14:53 Cloudy 79 26.1 67 19.4 67 67 N 9 15 29.91 1013 10 16 0.00 0.00
3:53 pm 15:53 Cloudy 80 26.7 67 19.4 64 64 N 15 24 29.91 1013 10 16 0.00 0.00
4:53 pm 16:53 Mostly Cloudy 80 26.7 67 19.4 64 64 N 14 22 29.91 1013 10 16 0.00 0.00
5:53 pm 17:53 Mostly Cloudy 79 26.1 66 18.9 65 65 N 13 20 29.90 1013 10 16 0.00 0.00
6:53 pm 18:53 Mostly Cloudy 79 26.1 67 19.4 67 67 NE 13 20 29.90 1013 10 16 0.00 0.00
7:41 pm 19:41 Mostly Cloudy 77 25 67 19.4 71 71 NE 10 17 29.88 1012 10 16 0.00 0.00
7:49 pm 19:49 Partly Cloudy 77 25 66 19 69 69 NNE 14 22 29.88 1012 10 16 0.00 0.00
7:53 pm 19:53 Partly Cloudy 77 25 66 18.9 69 69 NNE 14 22 29.91 1013 10 16 0.00 0.00
8:53 pm 20:53 Clear 74 23.3 67 19.4 79 79 NE 12 19 29.93 1014 10 16 0.00 0.00
9:53 pm 21:53 Mostly Clear 72 22.2 67 19.4 84 84 NE 9 15 29.96 1015 10 16 0.00 0.00
10:53 pm 22:53 Mostly Cloudy 71 21.7 67 19.4 87 87 NNE 8 13 29.99 1016 10 16 0.00 0.00
11:53 pm 23:53 Mostly Cloudy 71 21.7 67 19.4 87 87 N 8 13 30.00 1016 10 16 0.00 0.00

Powered by Vaisala Xweather